Weather Roundup
Issued by NWS

Home | Current Version | Previous Version | Text Only | Print | Product List | Glossary On
Versions: 1 2 3 4 5 6 7 8 9 10 11 12 13 14 15 16 17 18 19 20 21 22 23 24 25 26 27 28 29 30 31 32 33 34 35 36 37 38 39 40 41 42 43 44 45 46 47 48 49 50
000
NZUS93 KARX 021559
HRRWXR

CURRENT HOURLY OBSERVATIONS ACROSS
MUCH OF THE UPPER MISSISSIPPI VALLEY
NATIONAL WEATHER SERVICE LA CROSSE WI
1100 AM CDT TUE SEP 02 2014


...SOUTHEAST MINNESOTA...


CITY           SKY/WX    TMP DP  RH WIND       PRES   REMARKS
ROCHESTER      SUNNY     70  57  63 W8        29.93S
ROCHESTER/MAYO FAIR      68  55  62 W8G17     29.92S
WINONA         SUNNY     72  61  68 W3        29.90F
AUSTIN         SUNNY     72  55  56 W10       29.93S
ALBERT LEA     SUNNY     72  57  60 SW7       29.93F
DODGE CENTER   SUNNY     70  61  73 W12       29.93S
PRESTON        SUNNY     69  61  74 CALM      29.93S
OWATONNA       SUNNY     70  57  64 W7        29.93S
FARIBAULT      SUNNY     73  57  56 SW6       29.92F
$$

...ELSEWHERE IN MINNESOTA...


CITY           SKY/WX    TMP DP  RH WIND       PRES   REMARKS
MINNEAPOLIS    SUNNY     72  56  57 VRB3      29.90R
INTNL FALLS    SUNNY     65  55  70 W8        29.77S
DULUTH         MOSUNNY   70  52  52 W8        29.84F
RED WING       SUNNY     72  59  64 W6        29.89R
REDWOOD FALLS  SUNNY     70  58  65 SW6       29.91S
MANKATO        SUNNY     68  57  68 SW6       29.92S
WORTHINGTON    SUNNY     68  57  68 SW5       29.97R
FAIRMONT       SUNNY     70  55  60 W6        29.95R
$$

...SOUTHWEST WISCONSIN...


CITY           SKY/WX    TMP DP  RH WIND       PRES   REMARKS
LA CROSSE      SUNNY     72  57  59 VRB6      29.90F
PRAIRIE DU CHI SUNNY     70  58  65 SW3       29.91S
BOSCOBEL       SUNNY     74  59  59 NW6       29.91F
LONE ROCK      NOT AVBL
PLATTEVILLE    MOSUNNY   67  61  80 CALM      29.93F
FORT MC COY    MOSUNNY   69  55  62 W7G18     29.92R
VIROQUA        FAIR      70  58  64 W8        29.91F
WIS DELLS      PTSUNNY   67  56  67 NW9       29.91S
$$

...ELSEWHERE IN WISCONSIN...


CITY           SKY/WX    TMP DP  RH WIND       PRES   REMARKS
MILWAUKEE      PTSUNNY   76  58  53 SW7       29.89F
MADISON        CLOUDY    69  59  70 NW6       29.91S
GREEN BAY      CLOUDY    68  61  78 NW9       29.90R
EAU CLAIRE     NOT AVBL
BLACK RVR FLS  FAIR      70  58  67 SW7       29.90S
MEDFORD        MOSUNNY   64  58  80 NW7       29.89S
WAUSAU         CLOUDY    67  59  75 W6        29.87S
WIS RAPIDS     PTSUNNY   70  58  65 VRB6      29.91R
MARSHFIELD     MOSUNNY   70  61  73 W10       29.89S
RICE LAKE      SUNNY     68  55  62 W6        29.90S
$$

...NORTHEAST IOWA...


CITY           SKY/WX    TMP DP  RH WIND       PRES   REMARKS
WATERLOO       SUNNY     68  59  73 S3        29.94R
DUBUQUE        MOSUNNY   67  60  78 SW6       29.93F
DECORAH        SUNNY     68  55  64 VRB5      29.92S
MASON CITY     SUNNY     72  58  61 W7        29.96S
CHARLES CITY   SUNNY     70  57  64 VRB3      29.94S
OELWEIN        SUNNY     68  59  73 CALM      29.95R
$$

...ELSEWHERE IN IOWA...


CITY           SKY/WX    TMP DP  RH WIND       PRES   REMARKS
DES MOINES     MOSUNNY   72  59  63 CALM      29.97S
IOWA CITY      SUNNY     73  61  65 CALM      29.95F
FORT DODGE     SUNNY     70  57  64 W7        29.99S
MARSHALLTOWN   SUNNY     70  59  68 W5        29.96S
CEDAR RAPIDS   SUNNY     71  59  65 N3        29.94R
$$

...NORTHERN ILLINOIS...


CITY           SKY/WX    TMP DP  RH WIND       PRES   REMARKS
CHICAGO-OHARE  PTSUNNY   76  59  55 W5        29.90F
DUPAGE         MOSUNNY   78  63  59 W7        29.92R
CHICAGO-MIDWAY PTSUNNY   79  63  57 SW7       29.90F
MOLINE         SUNNY     73  59  61 N7        29.95R
ROCKFORD       PTSUNNY   74  60  61 W15       29.95R
STERLING       MOSUNNY   72  59  64 NE8       29.95F
PEORIA         PTSUNNY   77  68  73 NW5       29.94S
$$

NOTE: "FAIR" INDICATES FEW OR NO CLOUDS BELOW 12,000 FEET WITH NO
SIGNIFICANT WEATHER AND/OR OBSTRUCTIONS TO VISIBILITY. WIND
SPEEDS ARE IN MILES-PER-HOUR.



USA.gov is the U.S. government's official web portal to all federal, state and local government web resources and services.